Terminal Aerodrome Forecast
Issued by NWS Chicago, IL

Home | Current Version | Previous Version | Graphics & Text | Print | Product List | Glossary On
Versions: 1 2 3 4 5 6 7 8 9 10 11 12 13 14 15 16 17 18 19 20 21 22 23 24 25 26 27 28
000
FTUS43 KLOT 271516 AAB
TAFRFD
TAF AMD
KRFD 271516Z 2715/2812 08017G23KT P6SM BKN015 OVC250
     FM271600 09017G24KT P6SM BKN025 OVC035
     FM272200 08018G26KT 6SM -SHRA BKN025 OVC035
     FM280800 08015KT P6SM VCSH SCT010 BKN018=

USA.gov is the U.S. government's official web portal to all federal, state and local government web resources and services.